Left ArrowRight Arrow

38.83388, -104.82136

Hourly Observations for November 14, 2020

Temp ( °F °C ) Dew Point ( °F °C ) Humidity (%) Winds ( mph kmh ) Pressure ( in mb ) Visibility ( mi km ) Precip ( " mm )
12:23 am 00:23 Clear 46 8 7 -14 20 20 ENE 14 22 29.15 987 10 16 0.00 0.00
12:38 am 00:38 Clear 46 8 9 -13 21 21 SSE 13 20 29.13 986 10 16 0.00 0.00
12:40 am 00:40 Clear 46 8 9 -13 21 21 SSW 16 26 29.14 987 10 16 0.00 0.00
12:41 am 00:41 Clear 46 8 9 -13 21 21 N 14 22 29.15 987 10 16 0.00 0.00
12:42 am 00:42 Clear 46 8 9 -13 21 21 E 13 20 29.09 985 10 16 0.00 0.00
12:48 am 00:48 Clear 46 8 9 -13 21 21 NW 14 22 29.12 986 10 16 0.00 0.00
12:55 am 00:55 Clear 46 8 9 -13 21 21 N 16 26 29.13 986 10 16 0.00 0.00
12:58 am 00:58 Clear 47 8.3 9 -13 21 21 N 7 11 29.12 986 10 16 0.00 0.00
1:00 am 01:00 Clear 48 9 9 -13 20 20 ESE 17 28 29.11 986 10 16 0.00 0.00
1:06 am 01:06 Clear 48 9 9 -13 20 20 SSE 17 28 29.10 985 10 16 0.00 0.00
1:11 am 01:11 Clear 48 9 9 -13 20 20 S 18 30 29.11 986 10 16 0.00 0.00
1:12 am 01:12 Clear 48 9 9 -13 20 20 W 14 22 29.12 986 10 16 0.00 0.00
1:13 am 01:13 Mostly Clear 48 9 9 -13 20 20 NW 14 22 29.13 986 10 16 0.00 0.00
1:14 am 01:14 Mostly Clear 48 9 9 -13 20 20 E 13 20 29.11 986 10 16 0.00 0.00
1:15 am 01:15 Mostly Clear 48 9 9 -13 20 20 SW 12 19 29.13 986 10 16 0.00 0.00
1:16 am 01:16 Mostly Clear 46 8 9 -13 21 21 WNW 17 28 29.14 987 10 16 0.00 0.00
1:18 am 01:18 Partly Cloudy 46 8 9 -13 21 21 W 18 30 29.15 987 10 16 0.00 0.00
1:22 am 01:22 Partly Cloudy 46 8 9 -13 21 21 SW 16 26 29.16 987 10 16 0.00 0.00
1:23 am 01:23 Partly Cloudy 46 8 9 -13 21 21 S 15 24 29.17 988 10 16 0.00 0.00
1:25 am 01:25 Partly Cloudy 46 8 9 -13 21 21 NNE 14 22 29.14 987 10 16 0.00 0.00
1:26 am 01:26 Partly Cloudy 46 8 9 -13 21 21 NNW 17 28 29.14 987 10 16 0.00 0.00
1:27 am 01:27 Partly Cloudy 46 8 9 -13 21 21 WNW 25 41 29.18 988 10 16 0.00 0.00
1:28 am 01:28 Mostly Clear 46 8 9 -13 21 21 SW 24 39 29.15 987 10 16 0.00 0.00
1:29 am 01:29 Mostly Clear 46 8 9 -13 21 21 S 26 43 29.13 986 10 16 0.00 0.00
1:30 am 01:30 Mostly Clear 46 8 9 -13 21 21 SW 25 41 29.14 987 10 16 0.00 0.00
1:32 am 01:32 Mostly Clear 46 8 9 -13 21 21 W 21 33 29.18 988 10 16 0.00 0.00
1:33 am 01:33 Mostly Clear 46 8 9 -13 21 21 WNW 15 24 29.16 987 10 16 0.00 0.00
1:35 am 01:35 Mostly Clear 46 8 9 -13 21 21 W 20 31 29.17 988 10 16 0.00 0.00
1:40 am 01:40 Mostly Clear 46 8 9 -13 21 21 WNW 21 33 29.14 987 10 16 0.00 0.00
1:53 am 01:53 Clear 46 8 10 -12 23 23 W 23 37 29.16 987 10 16 0.00 0.00
1:54 am 01:54 Clear 46 8 10 -12 23 23 SW 20 31 29.16 987 10 16 0.00 0.00
1:55 am 01:55 Clear 46 8 10 -12 23 23 SE 15 24 29.18 988 10 16 0.00 0.00
1:56 am 01:56 Clear 46 8 10 -12 23 23 NE 14 22 29.17 988 10 16 0.00 0.00
1:57 am 01:57 Clear 46 8 10 -12 23 23 NW 18 30 29.16 988 10 16 0.00 0.00
1:58 am 01:58 Clear 47 8.4 9 -12.6 21 21 W 21 33 29.16 988 10 16 0.00 0.00
1:59 am 01:59 Clear 46 8 9 -13 21 21 SW 17 28 29.17 988 10 16 0.00 0.00
2:00 am 02:00 Clear 46 8 9 -13 21 21 W 15 24 29.17 988 10 16 0.00 0.00
2:08 am 02:08 Clear 46 8 9 -13 21 21 SW 14 22 29.17 988 10 16 0.00 0.00
2:09 am 02:09 Clear 46 8 9 -13 21 21 W 15 24 29.16 988 10 16 0.00 0.00
2:10 am 02:10 Clear 46 8 9 -13 21 21 NNW 12 19 29.16 988 10 16 0.00 0.00
2:11 am 02:11 Clear 46 8 9 -13 21 21 SE 12 19 29.16 988 10 16 0.00 0.00
2:12 am 02:12 Clear 46 8 9 -13 21 21 WSW 14 22 29.18 988 10 16 0.00 0.00
2:28 am 02:28 Clear 46 8 10 -12 23 23 N 20 31 29.18 988 10 16 0.00 0.00
2:30 am 02:30 Clear 46 8 10 -12 23 23 N 14 22 29.15 987 10 16 0.00 0.00
2:34 am 02:34 Clear 46 8 10 -12 23 23 NW 15 24 29.17 988 10 16 0.00 0.00
2:35 am 02:35 Clear 46 8 10 -12 23 23 W 16 26 29.17 988 10 16 0.00 0.00
2:36 am 02:36 Clear 46 8 10 -12 23 23 S 12 19 29.16 988 10 16 0.00 0.00
2:40 am 02:40 Clear 46 8 10 -12 23 23 N 16 26 29.17 988 10 16 0.00 0.00
2:41 am 02:41 Clear 46 8 10 -12 23 23 NE 13 20 29.15 987 10 16 0.00 0.00
2:43 am 02:43 Clear 46 8 10 -12 23 23 NNW 16 26 29.16 988 10 16 0.00 0.00
2:51 am 02:51 Clear 45 7 10 -12 25 25 WNW 17 28 29.17 988 10 16 0.00 0.00
2:55 am 02:55 Clear 45 7 10 -12 25 25 NW 18 30 29.18 988 10 16 0.00 0.00
2:58 am 02:58 Clear 45 7.4 11 -11.8 24 24 WNW 14 22 29.19 989 10 16 0.00 0.00
3:08 am 03:08 Clear 45 7 12 -11 27 27 NNW 21 33 29.16 987 10 16 0.00 0.00
3:09 am 03:09 Clear 45 7 12 -11 27 27 NE 20 31 29.18 988 10 16 0.00 0.00
3:10 am 03:10 Clear 45 7 12 -11 27 27 NNW 17 28 29.21 989 10 16 0.00 0.00
3:13 am 03:13 Clear 45 7 12 -11 27 27 N 25 41 29.17 988 10 16 0.00 0.00
3:14 am 03:14 Clear 45 7 12 -11 27 27 WNW 22 35 29.20 989 10 16 0.00 0.00
3:15 am 03:15 Clear 45 7 12 -11 27 27 W 21 33 29.19 988 10 16 0.00 0.00
3:16 am 03:16 Clear 45 7 12 -11 27 27 NW 22 35 29.17 988 10 16 0.00 0.00
3:17 am 03:17 Clear 45 7 12 -11 27 27 W 16 26 29.19 989 10 16 0.00 0.00
3:18 am 03:18 Clear 45 7 12 -11 27 27 WNW 23 37 29.18 988 10 16 0.00 0.00
3:19 am 03:19 Clear 45 7 12 -11 27 27 NW 25 41 29.11 986 10 16 0.00 0.00
3:28 am 03:28 Clear 45 7 12 -11 27 27 N 21 33 29.17 988 10 16 0.00 0.00
3:29 am 03:29 Clear 45 7 12 -11 27 27 NW 23 37 29.17 988 10 16 0.00 0.00
3:30 am 03:30 Clear 45 7 14 -10 29 29 W 16 26 29.22 989 10 16 0.00 0.00
3:34 am 03:34 Clear 45 7 14 -10 29 29 E 15 24 29.19 988 10 16 0.00 0.00
3:47 am 03:47 Mostly Clear 45 7 14 -10 29 29 NNW 22 35 29.18 988 10 16 0.00 0.00
3:58 am 03:58 Mostly Clear 44 6.8 15 -9.6 30 30 NNW 18 30 29.22 989 10 16 0.00 0.00
4:00 am 04:00 Partly Cloudy 45 7 16 -9 31 31 N 14 22 29.21 989 10 16 0.00 0.00
4:03 am 04:03 Mostly Cloudy 45 7 16 -9 31 31 NW 21 33 29.19 988 10 16 0.00 0.00
4:15 am 04:15 Partly Cloudy 45 7 16 -9 31 31 WNW 18 30 29.21 989 10 16 0.00 0.00
4:17 am 04:17 Partly Cloudy 45 7 16 -9 31 31 W 20 31 29.20 989 10 16 0.00 0.00
4:18 am 04:18 Partly Cloudy 45 7 16 -9 31 31 SSW 18 30 29.21 989 10 16 0.00 0.00
4:22 am 04:22 Partly Cloudy 45 7 16 -9 31 31 WNW 14 22 29.22 989 10 16 0.00 0.00
4:23 am 04:23 Mostly Cloudy 45 7 16 -9 31 31 E 15 24 29.20 989 10 16 0.00 0.00
4:24 am 04:24 Mostly Cloudy 45 7 16 -9 31 31 NE 18 30 29.20 989 10 16 0.00 0.00
4:25 am 04:25 Mostly Cloudy 45 7 16 -9 31 31 NW 18 30 29.21 989 10 16 0.00 0.00
4:30 am 04:30 Mostly Cloudy 45 7 16 -9 31 31 WNW 13 20 29.21 989 10 16 0.00 0.00
4:31 am 04:31 Mostly Cloudy 45 7 16 -9 31 31 WSW 13 20 29.22 989 10 16 0.00 0.00
4:32 am 04:32 Mostly Cloudy 45 7 16 -9 31 31 WSW 15 24 29.24 990 10 16 0.00 0.00
4:33 am 04:33 Mostly Cloudy 45 7 16 -9 31 31 WNW 18 30 29.21 989 10 16 0.00 0.00
4:34 am 04:34 Mostly Cloudy 45 7 16 -9 31 31 N 20 31 29.21 989 10 16 0.00 0.00
4:35 am 04:35 Mostly Cloudy 45 7 16 -9 31 31 NNE 14 22 29.20 989 10 16 0.00 0.00
4:36 am 04:36 Mostly Cloudy 45 7 16 -9 31 31 E 14 22 29.21 989 10 16 0.00 0.00
4:37 am 04:37 Mostly Cloudy 45 7 16 -9 31 31 S 14 22 29.22 989 10 16 0.00 0.00
4:38 am 04:38 Mostly Cloudy 45 7 18 -8 34 34 WSW 12 19 29.24 990 10 16 0.00 0.00
4:39 am 04:39 Mostly Cloudy 45 7 18 -8 34 34 SW 12 19 29.23 990 10 16 0.00 0.00
4:46 am 04:46 Mostly Cloudy 45 7 18 -8 34 34 NW 14 22 29.22 989 10 16 0.00 0.00
4:48 am 04:48 Mostly Cloudy 45 7 18 -8 34 34 N 17 28 29.21 989 10 16 0.00 0.00
4:50 am 04:50 Mostly Cloudy 45 7 18 -8 34 34 WNW 20 31 29.21 989 10 16 0.00 0.00
4:54 am 04:54 Mostly Cloudy 45 7 18 -8 34 34 NNW 13 20 29.22 989 10 16 0.00 0.00
4:58 am 04:58 Mostly Cloudy 44 6.6 18 -8 35 35 NNW 13 20 29.21 989 10 16 0.00 0.00
5:09 am 05:09 Partly Cloudy 43 6 18 -8 36 36 NW 17 28 29.23 990 10 16 0.00 0.00
5:12 am 05:12 Partly Cloudy 43 6 18 -8 36 36 WNW 20 31 29.23 990 10 16 0.00 0.00
5:14 am 05:14 Partly Cloudy 43 6 18 -8 36 36 NW 15 24 29.23 990 10 16 0.00 0.00
5:15 am 05:15 Partly Cloudy 43 6 18 -8 36 36 N 14 22 29.23 990 10 16 0.00 0.00
5:17 am 05:17 Partly Cloudy 43 6 18 -8 36 36 WNW 14 22 29.22 989 10 16 0.00 0.00
5:18 am 05:18 Mostly Clear 43 6 18 -8 36 36 WSW 13 20 29.24 990 10 16 0.00 0.00
5:27 am 05:27 Mostly Clear 43 6 18 -8 36 36 N 13 20 29.25 990 10 16 0.00 0.00

Powered by Vaisala Xweather